FW9895 Weather Reports


time (UTC)temp
C
wind
direction
speed
KPH
gust
KPH
rain 1hr
cm
rain 24hr
cm
rain mn
cm
humidity
%
barometer
mb
20260506044558 9 325 6.4 12.9 0.00 0.00 0.00 92 1017.5
20260506043111 9 318 1.6 6.4 0.00 0.00 0.00 92 1017.3
20260506041600 8 0 0.0 6.4 0.00 0.00 0.00 92 1017.1
20260506040057 8 0 0.0 4.8 0.00 0.00 0.00 97 1017.1
20260506034615 8 0 0.0 3.2 0.00 0.00 0.00 96 1016.8
20260506033055 9 0 0.0 0.0 0.00 0.00 0.00 96 1016.6
20260506031555 9 0 0.0 4.8 0.00 0.00 0.00 96 1016.7
20260506030057 9 0 0.0 1.6 0.00 0.00 0.00 96 1016.7
20260506024554 10 0 0.0 4.8 0.00 0.00 0.00 96 1016.5
20260506023104 10 360 1.6 6.4 0.00 0.00 0.00 93 1016.5
20260506021553 11 25 1.6 4.8 0.00 0.00 0.00 92 1016.4
20260506020055 11 0 0.0 3.2 0.00 0.00 0.00 92 1016.4
20260506014553 10 75 3.2 6.4 0.00 0.00 0.00 93 1016.4
20260506013110 11 50 6.4 12.9 0.00 0.00 0.00 92 1016.2
20260506011601 11 0 0.0 4.8 0.00 0.00 0.00 92 1016.2
20260506010117 11 0 0.0 4.8 0.00 0.00 0.00 91 1016.1
20260506004556 11 0 0.0 3.2 0.00 0.00 0.00 92 1016.1
20260506003052 11 0 0.0 4.8 0.00 0.00 0.00 92 1016.2
20260506001602 11 0 0.0 4.8 0.00 0.00 0.00 91 1016.2
20260506000055 11 150 0.0 8.0 0.00 0.00 0.00 92 1016.1
20260505234553 11 360 1.6 11.3 0.00 0.00 0.00 90 1016.3
20260505233104 11 20 0.0 9.7 0.00 0.00 0.00 92 1016.3
20260505231555 10 22 6.4 14.5 0.00 0.00 0.00 92 1016.3
20260505230058 10 5 6.4 12.9 0.00 0.00 0.00 92 1016.3
20260505224558 11 0 6.4 14.5 0.00 0.00 0.00 90 1016.4
20260505223054 12 96 4.8 16.1 0.00 0.00 0.00 88 1016.4
20260505221556 11 17 6.4 14.5 0.00 0.00 0.00 87 1016.5
20260505220056 11 13 1.6 16.1 0.00 0.00 0.00 90 1016.4
20260505214619 11 0 8.0 14.5 0.00 0.00 0.00 88 1016.4
20260505213102 12 27 1.6 6.4 0.00 0.00 0.00 87 1016.4
20260505211555 11 0 1.6 12.9 0.00 0.00 0.00 88 1016.4
20260505210055 11 0 1.6 14.5 0.00 0.00 0.00 89 1016.5
20260505204554 11 292 4.8 12.9 0.00 0.00 0.00 87 1016.7
20260505203054 11 5 3.2 12.9 0.00 0.00 0.00 89 1016.6
20260505201558 11 312 4.8 12.9 0.00 0.00 0.00 88 1016.6
20260505200055 11 24 4.8 12.9 0.00 0.00 0.00 91 1016.5
20260505194556 10 323 4.8 17.7 0.00 0.00 0.00 92 1016.6
20260505193054 10 319 4.8 12.9 0.00 0.00 0.00 93 1016.5
20260505191604 9 29 6.4 12.9 0.00 0.00 0.00 94 1016.4
20260505190058 10 11 4.8 11.3 0.00 0.00 0.00 97 1016.4
20260505184556 9 324 4.8 11.3 0.00 0.00 0.00 99 1016.3
20260505183113 8 316 1.6 9.7 0.00 0.00 0.00 100 1016.4
20260505181558 8 12 3.2 8.0 0.00 0.00 0.00 100 1016.2
20260505180055 8 0 0.0 9.7 0.00 0.00 0.00 100 1016.1
20260505174556 8 0 6.4 12.9 0.00 0.00 0.00 100 1015.9
20260505173054 8 5 4.8 9.7 0.00 0.00 0.00 100 1015.9
20260505171601 8 360 0.0 4.8 0.00 0.00 0.00 100 1015.8
20260505170055 8 0 0.0 4.8 0.00 0.00 0.00 99 1015.7
20260505164554 7 135 0.0 4.8 0.00 0.00 0.00 99 1015.6
20260505163049 7 0 0.0 3.2 0.00 0.00 0.00 99 1015.6
20260505161615 7 0 0.0 3.2 0.00 0.00 0.00 100 1015.5
20260505153055 6 0 0.0 4.8 0.00 0.00 0.00 99 1015.4
20260505151549 6 152 0.0 8.0 0.00 0.00 0.00 99 1015.3
20260505124612 7 0 0.0 3.2 0.00 0.00 0.00 99 1014.6
20260505123110 7 97 0.0 3.2 0.00 0.00 0.00 99 1014.4
20260505121553 7 0 0.0 1.6 0.00 0.00 0.00 99 1014.3
20260505120111 7 0 0.0 0.0 0.00 0.00 0.00 99 1014.2
20260505114552 7 0 3.2 6.4 0.00 0.00 0.00 99 1014.1
20260505113051 7 155 3.2 8.0 0.00 0.00 0.00 99 1014.3
20260505111556 7 159 4.8 8.0 0.00 0.00 0.00 99 1014.1
20260505101557 8 0 0.0 0.0 0.00 0.00 0.00 99 1014.3
20260505100056 8 0 0.0 1.6 0.00 0.00 0.00 99 1014.3
20260505094556 8 0 0.0 1.6 0.00 0.00 0.00 99 1014.2
20260505093059 8 0 0.0 4.8 0.00 0.00 0.00 99 1014.1
20260505091606 8 178 0.0 6.4 0.00 0.00 0.00 99 1014.2
20260505090055 8 168 3.2 11.3 0.00 0.00 0.00 99 1014.2
20260505084557 8 167 6.4 11.3 0.00 0.00 0.00 99 1014.1
20260505083057 8 171 6.4 12.9 0.00 0.00 0.00 99 1014.3
20260505081554 8 169 6.4 11.3 0.00 0.00 0.00 99 1014.3
20260505080054 8 159 4.8 11.3 0.00 0.00 0.00 99 1014.3
20260505074559 8 167 4.8 9.7 0.00 0.00 0.00 99 1014.3
20260505073105 8 160 4.8 9.7 0.00 0.00 0.00 99 1014.1
20260505071559 9 163 4.8 11.3 0.00 0.00 0.00 98 1014.2
20260505070054 9 151 4.8 12.9 0.00 0.00 0.00 98 1014.3
20260505064551 9 146 8.0 12.9 0.00 0.00 0.00 98 1014.3
20260505063053 9 145 3.2 11.3 0.00 0.00 0.00 98 1014.3
20260505061554 9 155 3.2 8.0 0.00 0.00 0.00 98 1014.3
20260505060051 9 139 3.2 9.7 0.00 0.00 0.00 98 1014.3
20260505054611 10 112 3.2 6.4 0.00 0.00 0.00 97 1014.4
20260505053103 10 0 0.0 0.0 0.00 0.00 0.00 97 1014.5
20260505051553 10 49 0.0 4.8 0.00 0.00 0.00 97 1014.4
20260505050104 10 13 0.0 3.2 0.00 0.00 0.00 97 1014.4